This demonstration page uses our WeatherBlox Daily Observations layout. Learn more.

Hourly Observations for November 23, 2015

Temp ( °F °C ) Dew Point ( °F °C ) Humidity (%) Winds ( mph kmh ) Pressure ( in mb ) Visibility ( mi km ) Precip ( " mm )
12:15 am 00:15 Clear 30 -1 23 -5 75 75 WNW 3 6 30.18 1022 10 16.09344 0 0
12:35 am 00:35 Clear 32 0 23 -5 69 69 Calm 30.18 1022 10 16.09344 0 0
12:55 am 00:55 Clear 32 0 25 -4 75 75 WSW 3 6 30.18 1022 10 16.09344 0 0
1:15 am 01:15 Clear 32 0 25 -4 75 75 Calm 30.18 1022 10 16.09344 0 0
1:35 am 01:35 Clear 34 1 25 -4 70 70 Calm 30.15 1021 10 16.09344 0 0
1:55 am 01:55 Clear 34 1 25 -4 70 70 Calm 30.15 1021 10 16.09344 0 0
2:15 am 02:15 Clear 32 0 23 -5 69 69 Calm 30.18 1022 10 16.09344 0 0
2:35 am 02:35 Clear 32 0 25 -4 75 75 WSW 3 6 30.18 1022 10 16.09344 0 0
2:55 am 02:55 Clear 34 1 25 -4 70 70 WSW 3 6 30.15 1021 10 16.09344 0 0
3:15 am 03:15 Clear 36 2 25 -4 65 65 WSW 3 6 30.15 1021 10 16.09344 0 0
3:35 am 03:35 Clear 36 2 23 -5 60 60 WSW 3 6 30.15 1021 10 16.09344 0 0
3:55 am 03:55 Clear 36 2 25 -4 65 65 Calm 30.15 1021 10 16.09344 0 0
4:15 am 04:15 Clear 32 0 23 -5 69 69 WSW 5 7 30.18 1022 10 16.09344 0 0
4:35 am 04:35 Clear 36 2 23 -5 60 60 WSW 3 6 30.15 1021 10 16.09344 0 0
4:55 am 04:55 Clear 37 3 23 -5 56 56 W 3 6 30.15 1021 10 16.09344 0 0
5:15 am 05:15 Clear 36 2 25 -4 65 65 W 6 9 30.15 1021 10 16.09344 0 0
5:35 am 05:35 Clear 34 1 25 -4 70 70 W 6 9 30.15 1021 10 16.09344 0 0
5:55 am 05:55 Clear 32 0 23 -5 69 69 Calm 30.21 1023 10 16.09344 0 0
6:15 am 06:15 Clear 30 -1 23 -5 75 75 W 3 6 30.21 1023 10 16.09344 0 0
6:35 am 06:35 Clear 32 0 23 -5 69 69 W 3 6 30.21 1023 10 16.09344 0 0
6:55 am 06:55 Clear 30 -1 23 -5 75 75 Calm 30.21 1023 10 16.09344 0 0
7:15 am 07:15 Clear 28 -2 23 -5 80 80 Calm 30.21 1023 10 16.09344 0 0
7:35 am 07:35 Sunny 28 -2 23 -5 80 80 WNW 5 7 30.21 1023 10 16.09344 0 0
7:55 am 07:55 Sunny 30 -1 23 -5 75 75 WSW 5 7 30.21 1023 10 16.09344 0 0
8:15 am 08:15 Sunny 28 -2 23 -5 80 80 W 5 7 30.21 1023 10 16.09344 0 0
8:35 am 08:35 Sunny 34 1 27 -3 75 75 Calm 30.18 1022 10 16.09344 0 0
8:55 am 08:55 Sunny 37 3 28 -2 70 70 Calm 30.18 1022 10 16.09344 0 0
9:15 am 09:15 Sunny 41 5 27 -3 57 57 Calm 30.15 1021 10 16.09344 0 0
9:35 am 09:35 Sunny 43 6 28 -2 57 57 Calm 30.15 1021 10 16.09344 0 0
9:55 am 09:55 Sunny 45 7 30 -1 57 57 Calm 30.12 1020 10 16.09344 0 0
10:15 am 10:15 Sunny 46 8 28 -2 50 50 Calm 30.12 1020 10 16.09344 0 0
10:35 am 10:35 Sunny 48 9 30 -1 50 50 Calm 30.12 1020 10 16.09344 0 0
10:55 am 10:55 Sunny 52 11 30 -1 44 44 Calm 30.09 1019 10 16.09344 0 0
11:15 am 11:15 Sunny 54 12 28 -2 38 38 Calm 30.09 1019 10 16.09344 0 0
11:35 am 11:35 Sunny 55 13 28 -2 36 36 Calm 30.09 1019 10 16.09344 0 0
11:55 am 11:55 Sunny 57 14 28 -2 33 33 ESE 3 6 30.03 1017 10 16.09344 0 0
12:15 pm 12:15 Sunny 59 15 27 -3 29 29 Calm 30.03 1017 10 16.09344 0 0
12:35 pm 12:35 Sunny 61 16 21 -6 22 22 S 5 7 30.03 1017 10 16.09344 0 0
12:55 pm 12:55 Sunny 61 16 21 -6 22 22 SSE 6 9 30 1016 10 16.09344 0 0
1:15 pm 13:15 Sunny 63 17 21 -6 20 20 S 6 9 29.97 1015 10 16.09344 0 0
1:35 pm 13:35 Sunny 63 17 21 -6 20 20 SSE 8 13 29.97 1015 10 16.09344 0 0
1:55 pm 13:55 Sunny 63 17 23 -5 22 22 SSE 10 17 29.97 1015 10 16.09344 0 0
2:15 pm 14:15 Sunny 63 17 23 -5 22 22 SE 10 17 29.94 1014 10 16.09344 0 0
2:35 pm 14:35 Sunny 63 17 23 -5 22 22 SSE 12 19 29.94 1014 10 16.09344 0 0
2:55 pm 14:55 Sunny 64 18 25 -4 22 22 SSE 13 20 29.94 1014 10 16.09344 0 0
3:15 pm 15:15 Sunny 63 17 21 -6 20 20 SSE 10 17 29.94 1014 10 16.09344 0 0
3:35 pm 15:35 Sunny 63 17 21 -6 20 20 S 15 24 29.94 1014 10 16.09344 0 0
3:55 pm 15:55 Sunny 63 17 23 -5 22 22 S 9 15 29.94 1014 10 16.09344 0 0
4:15 pm 16:15 Sunny 59 15 27 -3 29 29 SSE 10 17 29.97 1015 10 16.09344 0 0
4:35 pm 16:35 Sunny 55 13 27 -3 33 33 SSE 8 13 29.97 1015 10 16.09344 0 0
4:55 pm 16:55 Sunny 55 13 27 -3 33 33 SE 10 17 29.94 1014 10 16.09344 0 0
5:15 pm 17:15 Clear 52 11 28 -2 41 41 SE 9 15 29.97 1015 10 16.09344 0 0
5:35 pm 17:35 Clear 46 8 28 -2 50 50 SE 10 17 30 1016 10 16.09344 0 0
5:55 pm 17:55 Clear 45 7 28 -2 53 53 SE 8 13 30 1016 10 16.09344 0 0
6:15 pm 18:15 Clear 45 7 28 -2 53 53 ESE 9 15 30 1016 10 16.09344 0 0
6:35 pm 18:35 Clear 45 7 30 -1 57 57 ESE 12 19 30 1016 10 16.09344 0 0
6:55 pm 18:55 Clear 45 7 30 -1 57 57 ESE 12 19 30 1016 10 16.09344 0 0
7:15 pm 19:15 Clear 43 6 30 -1 61 61 ESE 10 17 30 1016 10 16.09344 0 0
7:35 pm 19:35 Clear 41 5 30 -1 66 66 SE 10 17 30.03 1017 10 16.09344 0 0
7:55 pm 19:55 Clear 39 4 28 -2 65 65 SE 10 17 30.03 1017 10 16.09344 0 0
8:15 pm 20:15 Clear 37 3 28 -2 70 70 SE 9 15 30.03 1017 10 16.09344 0 0
8:35 pm 20:35 Clear 37 3 28 -2 70 70 SE 7 11 30.03 1017 10 16.09344 0 0
8:55 pm 20:55 Clear 36 2 28 -2 75 75 SE 8 13 30.06 1018 10 16.09344 0 0
9:15 pm 21:15 Clear 36 2 28 -2 75 75 SE 9 15 30.06 1018 10 16.09344 0 0
9:35 pm 21:35 Clear 36 2 28 -2 75 75 SE 8 13 30.06 1018 10 16.09344 0 0
9:55 pm 21:55 Clear 36 2 27 -3 70 70 SE 6 9 30.06 1018 10 16.09344 0 0
10:15 pm 22:15 Clear 36 2 27 -3 70 70 SE 5 7 30.06 1018 10 16.09344 0 0
10:35 pm 22:35 Clear 36 2 27 -3 70 70 SE 7 11 30.06 1018 10 16.09344 0 0
10:55 pm 22:55 Clear 36 2 28 -2 75 75 SE 7 11 30.06 1018 10 16.09344 0 0
11:15 pm 23:15 Clear 36 2 28 -2 75 75 SE 8 13 30.06 1018 10 16.09344 0 0
11:35 pm 23:35 Clear 36 2 28 -2 75 75 SE 9 15 30.03 1017 10 16.09344 0 0
11:55 pm 23:55 Clear 36 2 28 -2 75 75 SSE 10 17 30.03 1017 10 16.09344 0 0

Powered by AerisWeather